| time (UTC) | temp C | wind direction | speed KPH | gust KPH | rain 1hr cm | rain 24hr cm | rain mn cm | humidity % | barometer mb |
| 20260505011514 | 11 | 294 | 0.0 | 6.4 | 0.00 | 0.00 | 0.00 | 79 | 1011.9 |
| 20260505010013 | 11 | 170 | 1.6 | 8.0 | 0.00 | 0.00 | 0.00 | 79 | 1011.8 |
| 20260505004517 | 11 | 251 | 1.6 | 6.4 | 0.00 | 0.00 | 0.00 | 80 | 1011.6 |
| 20260505003012 | 11 | 90 | 0.0 | 3.2 | 0.00 | 0.00 | 0.00 | 78 | 1011.3 |
| 20260505001512 | 11 | 249 | 0.0 | 3.2 | 0.00 | 0.00 | 0.00 | 77 | 1011.1 |
| 20260505000014 | 12 | 182 | 1.6 | 12.9 | 0.00 | 0.00 | 0.00 | 76 | 1010.8 |
| 20260504234511 | 12 | 304 | 1.6 | 9.7 | 0.00 | 0.00 | 0.00 | 74 | 1010.7 |
| 20260504233010 | 13 | 272 | 1.6 | 9.7 | 0.00 | 0.00 | 0.00 | 71 | 1010.5 |
| 20260504231509 | 13 | 319 | 3.2 | 11.3 | 0.00 | 0.00 | 0.00 | 68 | 1010.3 |
| 20260504230008 | 13 | 302 | 4.8 | 12.9 | 0.00 | 0.00 | 0.00 | 66 | 1010.1 |
| 20260504224507 | 14 | 338 | 3.2 | 20.9 | 0.00 | 0.00 | 0.00 | 64 | 1010.1 |
| 20260504223007 | 15 | 269 | 6.4 | 19.3 | 0.00 | 0.00 | 0.00 | 61 | 1010.2 |
| 20260504221510 | 15 | 292 | 8.0 | 29.0 | 0.00 | 0.00 | 0.00 | 59 | 1010.1 |
| 20260504220008 | 16 | 212 | 9.7 | 20.9 | 0.00 | 0.00 | 0.00 | 55 | 1010.2 |
| 20260504214504 | 16 | 264 | 11.3 | 30.6 | 0.00 | 0.00 | 0.00 | 53 | 1010.0 |
| 20260504213004 | 16 | 330 | 6.4 | 25.7 | 0.00 | 0.00 | 0.00 | 53 | 1010.2 |
| 20260504211510 | 17 | 182 | 8.0 | 16.1 | 0.00 | 0.00 | 0.00 | 52 | 1010.2 |
| 20260504210001 | 17 | 191 | 6.4 | 25.7 | 0.00 | 0.00 | 0.00 | 50 | 1010.2 |
| 20260504204630 | 18 | 293 | 9.7 | 19.3 | 0.00 | 0.00 | 0.00 | 48 | 1010.1 |
| 20260504203135 | 18 | 305 | 6.4 | 16.1 | 0.00 | 0.00 | 0.00 | 46 | 1010.0 |
| 20260504201559 | 18 | 184 | 4.8 | 20.9 | 0.00 | 0.00 | 0.00 | 46 | 1009.9 |
| 20260504200058 | 18 | 260 | 4.8 | 17.7 | 0.00 | 0.00 | 0.00 | 45 | 1009.9 |
| 20260504194556 | 18 | 170 | 4.8 | 17.7 | 0.00 | 0.00 | 0.00 | 47 | 1010.1 |
| 20260504193056 | 18 | 80 | 6.4 | 20.9 | 0.00 | 0.00 | 0.00 | 48 | 1010.1 |
| 20260504191558 | 18 | 312 | 6.4 | 22.5 | 0.00 | 0.00 | 0.00 | 48 | 1010.1 |
| 20260504190055 | 19 | 306 | 4.8 | 19.3 | 0.00 | 0.00 | 0.00 | 45 | 1010.3 |
| 20260504184550 | 18 | 300 | 4.8 | 16.1 | 0.00 | 0.00 | 0.00 | 45 | 1010.3 |
| 20260504183050 | 18 | 220 | 6.4 | 17.7 | 0.00 | 0.00 | 0.00 | 47 | 1010.4 |
| 20260504181547 | 18 | 241 | 8.0 | 27.4 | 0.00 | 0.00 | 0.00 | 44 | 1010.7 |
| 20260504180046 | 18 | 181 | 3.2 | 19.3 | 0.00 | 0.00 | 0.00 | 42 | 1011.0 |
| 20260504174546 | 17 | 308 | 3.2 | 17.7 | 0.00 | 0.00 | 0.00 | 44 | 1011.1 |
| 20260504173052 | 18 | 152 | 3.2 | 16.1 | 0.00 | 0.00 | 0.00 | 42 | 1010.9 |
| 20260504171541 | 18 | 319 | 3.2 | 19.3 | 0.00 | 0.00 | 0.00 | 41 | 1011.1 |
| 20260504081518 | 5 | 279 | 0.0 | 0.0 | 0.00 | 0.00 | 0.00 | 81 | 1012.1 |
| 20260504050001 | 5 | 278 | 0.0 | 1.6 | 0.00 | 0.00 | 0.00 | 77 | 1011.7 |
| 20260504044558 | 6 | 278 | 0.0 | 1.6 | 0.00 | 0.00 | 0.00 | 77 | 1011.8 |
| 20260504043100 | 6 | 278 | 0.0 | 1.6 | 0.00 | 0.00 | 0.00 | 77 | 1011.8 |
| 20260504041602 | 6 | 278 | 0.0 | 0.0 | 0.00 | 0.00 | 0.00 | 76 | 1011.6 |
| 20260504040054 | 6 | 278 | 0.0 | 1.6 | 0.00 | 0.00 | 0.00 | 74 | 1011.6 |
| 20260504034559 | 6 | 278 | 0.0 | 1.6 | 0.00 | 0.00 | 0.00 | 74 | 1011.7 |
| 20260504033050 | 6 | 278 | 0.0 | 0.0 | 0.00 | 0.00 | 0.00 | 72 | 1011.5 |
| 20260504031549 | 7 | 278 | 0.0 | 0.0 | 0.00 | 0.00 | 0.00 | 71 | 1011.5 |
| 20260504030046 | 7 | 278 | 0.0 | 0.0 | 0.00 | 0.00 | 0.00 | 67 | 1011.4 |
| 20260504024550 | 8 | 278 | 0.0 | 1.6 | 0.00 | 0.00 | 0.00 | 66 | 1011.2 |
| 20260504023044 | 8 | 278 | 0.0 | 1.6 | 0.00 | 0.00 | 0.00 | 63 | 1011.2 |
| 20260504021542 | 8 | 277 | 0.0 | 3.2 | 0.00 | 0.00 | 0.00 | 58 | 1011.1 |
| 20260504020043 | 8 | 284 | 0.0 | 1.6 | 0.00 | 0.00 | 0.00 | 48 | 1011.0 |
| 20260504014541 | 8 | 286 | 0.0 | 1.6 | 0.00 | 0.00 | 0.00 | 49 | 1010.9 |
| 20260504013054 | 8 | 286 | 0.0 | 1.6 | 0.00 | 0.00 | 0.00 | 47 | 1010.8 |